SPRKM EPKK-EPKK

Flight info

Callsign SPRKM
Flight time 1h 25m
Altitude 2000
Route EPKK/25 AEPKK STAY01/0030 DCT EPKKZ DCT EPKKI DCT EPKKB DCT EPKKH DCT EPKTG DCT EPKTX DCT AEPKT STAY02/020 DCT EPKTX DCT EPKTG DCT EPKKH DCT EPKKB DCT EPKKI DCT EPKKZ DCT AEPKK STAY03/030
Aircraft DA40/L-V/N

Departure

Time 2026-05-05 18:36
Airport Kraków John Paul II International Airport (EPKK)

Arrival

Time 2026-05-05 20:01
Airport Kraków John Paul II International Airport (EPKK)
Time Latitude Longitude Altitude Speed Heading
2026-05-05 18:25 50.07718 19.80277 784 ft 0 kts 350°
2026-05-05 18:26 50.07726 19.80274 784 ft 5 kts 349°
2026-05-05 18:27 50.07768 19.80278 784 ft 7 kts 54°
2026-05-05 18:27 50.07802 19.80348 784 ft 9 kts
2026-05-05 18:27 50.07850 19.80334 784 ft 5 kts 348°
2026-05-05 18:27 50.07858 19.80331 784 ft 0 kts 347°
2026-05-05 18:33 50.07875 19.80325 784 ft 9 kts 346°
2026-05-05 18:33 50.07988 19.80286 783 ft 18 kts 331°
2026-05-05 18:33 50.08007 19.80170 784 ft 10 kts 255°
2026-05-05 18:33 50.08006 19.80159 784 ft 0 kts 266°
2026-05-05 18:34 50.08006 19.80158 784 ft 0 kts 261°
2026-05-05 18:34 50.08003 19.80134 784 ft 16 kts 258°
2026-05-05 18:35 50.07945 19.79709 784 ft 60 kts 258°
2026-05-05 18:35 50.07843 19.78972 844 ft 75 kts 258°
2026-05-05 18:35 50.07727 19.78099 1016 ft 85 kts 258°
2026-05-05 18:35 50.07603 19.77142 1194 ft 98 kts 258°
2026-05-05 18:36 50.07466 19.76067 1407 ft 102 kts 252°
2026-05-05 18:36 50.06909 19.75488 1540 ft 111 kts 181°
2026-05-05 18:36 50.06126 19.75573 1637 ft 112 kts 169°
2026-05-05 18:36 50.05646 19.76446 1632 ft 119 kts 99°
2026-05-05 18:37 50.05809 19.77773 1666 ft 129 kts 76°
2026-05-05 18:37 50.06074 19.79170 1706 ft 136 kts 75°
2026-05-05 18:37 50.06340 19.80542 1561 ft 128 kts 75°
2026-05-05 18:37 50.06630 19.81805 1356 ft 120 kts 68°
2026-05-05 18:38 50.07263 19.82519 1180 ft 112 kts
2026-05-05 18:38 50.07957 19.82161 1114 ft 107 kts 321°
2026-05-05 18:38 50.08168 19.81183 960 ft 103 kts 252°
2026-05-05 18:38 50.07999 19.80114 808 ft 97 kts 257°
2026-05-05 18:39 50.07868 19.79175 785 ft 88 kts 258°
2026-05-05 18:39 50.07735 19.78192 976 ft 94 kts 257°
2026-05-05 18:39 50.07593 19.77134 1097 ft 107 kts 258°
2026-05-05 18:39 50.07442 19.75997 1312 ft 107 kts 252°
2026-05-05 18:40 50.06845 19.75479 1449 ft 113 kts 180°
2026-05-05 18:40 50.06048 19.75620 1570 ft 118 kts 163°
2026-05-05 18:40 50.05664 19.76688 1673 ft 126 kts 87°
2026-05-05 18:40 50.05905 19.78053 1692 ft 135 kts 74°
2026-05-05 18:41 50.06198 19.79457 1725 ft 135 kts 73°
2026-05-05 18:41 50.06500 19.80888 1612 ft 140 kts 73°
2026-05-05 18:41 50.06851 19.82312 1589 ft 139 kts 66°
2026-05-05 18:41 50.07681 19.82790 1491 ft 139 kts 338°
2026-05-05 18:42 50.08279 19.81829 1241 ft 123 kts 265°
2026-05-05 18:42 50.08067 19.80586 902 ft 114 kts 257°
2026-05-05 18:42 50.07909 19.79490 811 ft 93 kts 259°
2026-05-05 18:42 50.07781 19.78570 905 ft 86 kts 257°
2026-05-05 18:43 50.07651 19.77624 1046 ft 95 kts 256°
2026-05-05 18:43 50.07498 19.76575 1225 ft 103 kts 256°
2026-05-05 18:43 50.07199 19.75575 1378 ft 108 kts 203°
2026-05-05 18:43 50.06424 19.75646 1482 ft 118 kts 172°
2026-05-05 18:44 50.05944 19.76549 1578 ft 131 kts 86°
2026-05-05 18:44 50.06145 19.77929 1617 ft 126 kts 76°
2026-05-05 18:44 50.06406 19.79224 1572 ft 125 kts 79°
2026-05-05 18:44 50.06652 19.80472 1494 ft 112 kts 73°
2026-05-05 18:45 50.06877 19.81585 1452 ft 105 kts 76°
2026-05-05 18:45 50.07081 19.82629 1409 ft 98 kts 76°
2026-05-05 18:45 50.07267 19.83625 1345 ft 90 kts 86°
2026-05-05 18:45 50.06852 19.83888 1289 ft 101 kts 227°
2026-05-05 18:46 50.06421 19.83056 1497 ft 100 kts 225°
2026-05-05 18:46 50.05860 19.82275 1607 ft 112 kts 223°
2026-05-05 18:46 50.05287 19.81411 1690 ft 115 kts 225°
2026-05-05 18:46 50.04804 19.80459 1901 ft 111 kts 244°
2026-05-05 18:47 50.04723 19.79190 1854 ft 122 kts 265°
2026-05-05 18:47 50.05129 19.78037 1722 ft 140 kts 335°
2026-05-05 18:47 50.05770 19.78838 1669 ft 137 kts 95°
2026-05-05 18:47 50.05290 19.79968 1723 ft 124 kts 155°
2026-05-05 18:48 50.04505 19.79773 1576 ft 129 kts 229°
2026-05-05 18:48 50.04628 19.78506 1545 ft 133 kts 324°
2026-05-05 18:48 50.05449 19.78838 1507 ft 135 kts 59°
2026-05-05 18:48 50.05709 19.79695 1516 ft 135 kts 54°
2026-05-05 18:49 50.06532 19.80427 1365 ft 134 kts 33°
2026-05-05 18:49 50.06904 19.81665 1229 ft 121 kts 76°
2026-05-05 18:49 50.07164 19.82828 1154 ft 111 kts 52°
2026-05-05 18:49 50.08004 19.83249 1102 ft 95 kts 340°
2026-05-05 18:50 50.08343 19.82518 1027 ft 86 kts 253°
2026-05-05 18:50 50.08189 19.81584 960 ft 98 kts 258°
2026-05-05 18:50 50.08090 19.80830 931 ft 113 kts 258°
2026-05-05 18:50 50.07915 19.79552 794 ft 118 kts 258°
2026-05-05 18:51 50.07756 19.78398 839 ft 108 kts 259°
2026-05-05 18:51 50.07598 19.77225 973 ft 116 kts 257°
2026-05-05 18:51 50.07434 19.75988 1175 ft 116 kts 258°
2026-05-05 18:51 50.06899 19.75201 1280 ft 122 kts 181°
2026-05-05 18:52 50.06074 19.75477 1398 ft 127 kts 140°
2026-05-05 18:52 50.06031 19.76820 1424 ft 139 kts 72°
2026-05-05 18:52 50.06303 19.78288 1407 ft 145 kts 81°
2026-05-05 18:52 50.06508 19.79797 1427 ft 142 kts 77°
2026-05-05 18:53 50.06747 19.81291 1322 ft 143 kts 76°
2026-05-05 18:53 50.07265 19.82582 1334 ft 138 kts 53°
2026-05-05 18:53 50.07726 19.83776 1362 ft 128 kts 98°
2026-05-05 18:53 50.07094 19.84414 1409 ft 126 kts 198°
2026-05-05 18:54 50.06602 19.83330 1381 ft 133 kts 250°
2026-05-05 18:54 50.06107 19.82120 1417 ft 135 kts 226°
2026-05-05 18:54 50.05408 19.81124 1453 ft 136 kts 217°
2026-05-05 18:54 50.04679 19.80144 1440 ft 137 kts 234°
2026-05-05 18:55 50.04605 19.78701 1491 ft 140 kts 291°
2026-05-05 18:55 50.05406 19.78341 1443 ft 150 kts 51°
2026-05-05 18:55 50.05470 19.79832 1578 ft 138 kts 111°
2026-05-05 18:55 50.04766 19.80581 1667 ft 129 kts 189°
2026-05-05 18:56 50.04202 19.79576 1445 ft 149 kts 276°
2026-05-05 18:56 50.04802 19.78435 1565 ft 145 kts 350°
2026-05-05 18:56 50.05655 19.79190 1441 ft 139 kts 48°
2026-05-05 18:56 50.06232 19.80280 1315 ft 121 kts 54°
2026-05-05 18:57 50.06669 19.81348 1149 ft 112 kts 60°
2026-05-05 18:57 50.07159 19.82189 1072 ft 101 kts 19°
2026-05-05 18:57 50.07833 19.82133 1044 ft 99 kts 330°
2026-05-05 18:57 50.08170 19.81311 902 ft 94 kts 258°
2026-05-05 18:58 50.08030 19.80368 841 ft 85 kts 259°
2026-05-05 18:58 50.07902 19.79442 784 ft 92 kts 256°
2026-05-05 18:58 50.07758 19.78344 863 ft 110 kts 258°
2026-05-05 18:58 50.07592 19.77155 1045 ft 113 kts 257°
2026-05-05 18:59 50.07436 19.75964 1273 ft 113 kts 263°
2026-05-05 18:59 50.07837 19.74954 1462 ft 123 kts 327°
2026-05-05 18:59 50.08604 19.74284 1613 ft 127 kts 326°
2026-05-05 18:59 50.09282 19.73440 1751 ft 126 kts 307°
2026-05-05 19:00 50.09872 19.72359 1894 ft 133 kts 307°
2026-05-05 19:00 50.10537 19.71274 1900 ft 138 kts 311°
2026-05-05 19:00 50.11259 19.70309 1762 ft 136 kts 322°
2026-05-05 19:00 50.11960 19.69376 1781 ft 132 kts 309°
2026-05-05 19:01 50.12593 19.68298 1729 ft 137 kts 309°
2026-05-05 19:01 50.13206 19.67272 1886 ft 128 kts 312°
2026-05-05 19:01 50.13835 19.66250 1795 ft 136 kts 310°
2026-05-05 19:01 50.14482 19.65148 1634 ft 141 kts 310°
2026-05-05 19:02 50.15120 19.64021 1686 ft 133 kts 307°
2026-05-05 19:02 50.15560 19.62839 1840 ft 120 kts 288°
2026-05-05 19:02 50.15846 19.61680 1946 ft 113 kts 284°
2026-05-05 19:02 50.16140 19.60546 1996 ft 117 kts 284°
2026-05-05 19:03 50.16561 19.59406 1950 ft 124 kts 309°
2026-05-05 19:03 50.17200 19.58482 1909 ft 127 kts 316°
2026-05-05 19:03 50.17904 19.57661 1930 ft 126 kts 321°
2026-05-05 19:03 50.18604 19.56860 1979 ft 123 kts 317°
2026-05-05 19:04 50.19312 19.56063 2022 ft 129 kts 319°
2026-05-05 19:04 50.20074 19.55238 1902 ft 134 kts 320°
2026-05-05 19:04 50.20815 19.54371 1871 ft 131 kts 317°
2026-05-05 19:04 50.21503 19.53452 1790 ft 130 kts 317°
2026-05-05 19:05 50.22167 19.52513 1717 ft 128 kts 315°
2026-05-05 19:05 50.22832 19.51594 1748 ft 130 kts 317°
2026-05-05 19:05 50.23503 19.50656 1789 ft 127 kts 316°
2026-05-05 19:05 50.24119 19.49701 1673 ft 125 kts 311°
2026-05-05 19:06 50.24712 19.48742 1596 ft 120 kts 309°
2026-05-05 19:06 50.25289 19.47805 1547 ft 118 kts 309°
2026-05-05 19:06 50.25869 19.46894 1503 ft 119 kts 312°
2026-05-05 19:06 50.26409 19.45928 1477 ft 116 kts 296°
2026-05-05 19:07 50.26739 19.44814 1468 ft 111 kts 289°
2026-05-05 19:07 50.27091 19.43729 1450 ft 112 kts 294°
2026-05-05 19:07 50.27426 19.42611 1371 ft 114 kts 290°
2026-05-05 19:07 50.27728 19.41482 1343 ft 119 kts 290°
2026-05-05 19:08 50.28059 19.40214 1384 ft 130 kts 288°
2026-05-05 19:08 50.28406 19.38877 1437 ft 134 kts 287°
2026-05-05 19:08 50.28749 19.37502 1482 ft 137 kts 286°
2026-05-05 19:08 50.29101 19.36107 1565 ft 145 kts 287°
2026-05-05 19:09 50.29453 19.34636 1594 ft 142 kts 285°
2026-05-05 19:09 50.29755 19.33191 1615 ft 140 kts 284°
2026-05-05 19:09 50.30080 19.31758 1684 ft 141 kts 288°
2026-05-05 19:09 50.30476 19.30324 1703 ft 145 kts 290°
2026-05-05 19:10 50.30886 19.28848 1686 ft 148 kts 290°
2026-05-05 19:10 50.31281 19.27368 1655 ft 151 kts 289°
2026-05-05 19:10 50.31679 19.25825 1576 ft 153 kts 289°
2026-05-05 19:10 50.32033 19.24285 1506 ft 152 kts 284°
2026-05-05 19:11 50.32369 19.22771 1565 ft 145 kts 287°
2026-05-05 19:11 50.32896 19.21397 1586 ft 151 kts 304°
2026-05-05 19:11 50.33546 19.20093 1632 ft 151 kts 304°
2026-05-05 19:11 50.34215 19.18809 1629 ft 152 kts 306°
2026-05-05 19:12 50.34869 19.17546 1712 ft 147 kts 305°
2026-05-05 19:12 50.35505 19.16319 1811 ft 143 kts 303°
2026-05-05 19:12 50.36132 19.15096 1819 ft 144 kts 302°
2026-05-05 19:12 50.36754 19.13837 1808 ft 148 kts 302°
2026-05-05 19:13 50.37377 19.12563 1861 ft 148 kts 302°
2026-05-05 19:13 50.38022 19.11261 1789 ft 153 kts 302°
2026-05-05 19:13 50.38677 19.09942 1766 ft 153 kts 302°
2026-05-05 19:13 50.39318 19.08622 1768 ft 151 kts 302°
2026-05-05 19:14 50.39945 19.07314 1765 ft 150 kts 301°
2026-05-05 19:14 50.40865 19.06565 1737 ft 158 kts 349°
2026-05-05 19:14 50.41958 19.06376 1716 ft 159 kts 353°
2026-05-05 19:14 50.43056 19.06261 1710 ft 156 kts 356°
2026-05-05 19:15 50.44111 19.06456 1721 ft 155 kts 28°
2026-05-05 19:15 50.44925 19.07526 1741 ft 154 kts 51°
2026-05-05 19:15 50.45388 19.08956 1779 ft 141 kts 96°
2026-05-05 19:15 50.44882 19.09968 1994 ft 116 kts 172°
2026-05-05 19:16 50.44267 19.09485 2093 ft 110 kts 235°
2026-05-05 19:16 50.44494 19.08154 1547 ft 150 kts 333°
2026-05-05 19:16 50.45180 19.08889 1472 ft 134 kts 90°
2026-05-05 19:16 50.44816 19.09991 1581 ft 115 kts 160°
2026-05-05 19:17 50.44102 19.09670 1680 ft 120 kts 234°
2026-05-05 19:17 50.44344 19.08495 1818 ft 137 kts 340°
2026-05-05 19:17 50.45162 19.09179 1770 ft 143 kts 69°
2026-05-05 19:17 50.44901 19.10474 1761 ft 129 kts 154°
2026-05-05 19:18 50.44201 19.10005 1698 ft 138 kts 252°
2026-05-05 19:18 50.44824 19.09104 1676 ft 153 kts 20°
2026-05-05 19:18 50.45373 19.10322 1680 ft 132 kts 86°
2026-05-05 19:18 50.45405 19.11672 1478 ft 114 kts 96°
2026-05-05 19:19 50.45383 19.12819 1461 ft 109 kts 91°
2026-05-05 19:19 50.45621 19.14001 1543 ft 123 kts 50°
2026-05-05 19:19 50.46422 19.14565 1639 ft 134 kts 10°
2026-05-05 19:19 50.47322 19.14271 1577 ft 138 kts 312°
2026-05-05 19:20 50.47605 19.12875 1416 ft 141 kts 263°
2026-05-05 19:20 50.47599 19.11270 1207 ft 147 kts 268°
2026-05-05 19:20 50.47594 19.09794 997 ft 123 kts 270°
2026-05-05 19:20 50.47602 19.08560 1116 ft 108 kts 270°
2026-05-05 19:21 50.47619 19.07328 1254 ft 115 kts 269°
2026-05-05 19:21 50.47636 19.06018 1340 ft 122 kts 269°
2026-05-05 19:21 50.47698 19.04692 1558 ft 123 kts 268°
2026-05-05 19:21 50.47279 19.03669 1707 ft 119 kts 198°
2026-05-05 19:22 50.46424 19.03452 1676 ft 129 kts 187°
2026-05-05 19:22 50.45586 19.03651 1776 ft 130 kts 135°
2026-05-05 19:22 50.45399 19.05096 1730 ft 144 kts 98°
2026-05-05 19:22 50.45384 19.06687 1686 ft 148 kts 93°
2026-05-05 19:23 50.45516 19.08311 1624 ft 152 kts 81°
2026-05-05 19:23 50.45817 19.09890 1594 ft 149 kts 76°
2026-05-05 19:23 50.46111 19.11429 1565 ft 147 kts 71°
2026-05-05 19:23 50.46877 19.12225 1430 ft 135 kts
2026-05-05 19:24 50.47570 19.11534 1206 ft 123 kts 275°
2026-05-05 19:24 50.47592 19.10262 1043 ft 110 kts 269°
2026-05-05 19:24 50.47594 19.09152 997 ft 97 kts 270°
2026-05-05 19:24 50.47599 19.07962 1083 ft 113 kts 270°
2026-05-05 19:25 50.47612 19.06732 1243 ft 117 kts 268°
2026-05-05 19:25 50.47625 19.05422 1366 ft 122 kts 268°
2026-05-05 19:25 50.47671 19.04035 1493 ft 127 kts 258°
2026-05-05 19:25 50.47098 19.03253 1602 ft 121 kts 182°
2026-05-05 19:26 50.46238 19.03287 1662 ft 125 kts 178°
2026-05-05 19:26 50.45640 19.04071 1780 ft 136 kts 94°
2026-05-05 19:26 50.45799 19.05592 1768 ft 145 kts 83°
2026-05-05 19:26 50.45992 19.07142 1761 ft 145 kts 86°
2026-05-05 19:27 50.46131 19.08699 1780 ft 142 kts 87°
2026-05-05 19:27 50.46231 19.10262 1768 ft 145 kts 90°
2026-05-05 19:27 50.46328 19.11854 1718 ft 146 kts 79°
2026-05-05 19:27 50.46953 19.12961 1709 ft 132 kts 18°
2026-05-05 19:28 50.47610 19.12341 1320 ft 124 kts 271°
2026-05-05 19:28 50.47598 19.11081 1143 ft 108 kts 268°
2026-05-05 19:28 50.47599 19.09953 1007 ft 97 kts 269°
2026-05-05 19:28 50.47599 19.08966 995 ft 91 kts 270°
2026-05-05 19:29 50.47599 19.07872 1130 ft 105 kts 269°
2026-05-05 19:29 50.47607 19.06650 1208 ft 118 kts 269°
2026-05-05 19:29 50.47637 19.05360 1406 ft 119 kts 269°
2026-05-05 19:29 50.47295 19.04316 1488 ft 121 kts 198°
2026-05-05 19:30 50.46467 19.04026 1575 ft 125 kts 187°
2026-05-05 19:30 50.45787 19.04609 1685 ft 132 kts 108°
2026-05-05 19:30 50.45893 19.06112 1657 ft 145 kts 84°
2026-05-05 19:30 50.46074 19.07684 1665 ft 147 kts 85°
2026-05-05 19:31 50.46237 19.09286 1564 ft 150 kts 84°
2026-05-05 19:31 50.46407 19.10894 1533 ft 148 kts 85°
2026-05-05 19:31 50.46760 19.12367 1609 ft 144 kts 49°
2026-05-05 19:31 50.47567 19.12192 1424 ft 134 kts 282°
2026-05-05 19:32 50.47588 19.10789 1073 ft 125 kts 270°
2026-05-05 19:32 50.47592 19.09530 994 ft 103 kts 270°
2026-05-05 19:32 50.47599 19.08355 1061 ft 113 kts 269°
2026-05-05 19:32 50.47591 19.07098 1168 ft 120 kts 269°
2026-05-05 19:33 50.47606 19.05789 1360 ft 118 kts 268°
2026-05-05 19:33 50.47663 19.04482 1563 ft 123 kts 265°
2026-05-05 19:33 50.47054 19.03897 1706 ft 118 kts 183°
2026-05-05 19:33 50.46243 19.04082 1763 ft 129 kts 135°
2026-05-05 19:34 50.46121 19.05551 1772 ft 145 kts 94°
2026-05-05 19:34 50.46152 19.06634 1686 ft 150 kts 91°
2026-05-05 19:34 50.46188 19.08274 1616 ft 149 kts 91°
2026-05-05 19:35 50.46544 19.11264 1556 ft 144 kts 40°
2026-05-05 19:35 50.47438 19.11693 1447 ft 140 kts 332°
2026-05-05 19:35 50.47607 19.10450 1068 ft 122 kts 263°
2026-05-05 19:35 50.47596 19.09229 997 ft 102 kts 270°
2026-05-05 19:36 50.47600 19.08020 1091 ft 114 kts 270°
2026-05-05 19:36 50.47621 19.06743 1177 ft 123 kts 270°
2026-05-05 19:36 50.47607 19.05421 1359 ft 116 kts 245°
2026-05-05 19:36 50.46963 19.05655 1403 ft 120 kts 135°
2026-05-05 19:37 50.46408 19.06581 1640 ft 117 kts 137°
2026-05-05 19:37 50.45845 19.07568 1750 ft 121 kts 136°
2026-05-05 19:37 50.45171 19.08352 1748 ft 123 kts 180°
2026-05-05 19:37 50.44593 19.07399 1762 ft 129 kts 237°
2026-05-05 19:38 50.43960 19.06476 1844 ft 122 kts 212°
2026-05-05 19:38 50.43229 19.05817 1918 ft 122 kts 192°
2026-05-05 19:38 50.42382 19.06043 1872 ft 128 kts 168°
2026-05-05 19:38 50.41498 19.06168 1780 ft 131 kts 197°
2026-05-05 19:39 50.40640 19.05652 1756 ft 130 kts 188°
2026-05-05 19:39 50.39816 19.06163 1711 ft 133 kts 148°
2026-05-05 19:39 50.39096 19.07100 1694 ft 136 kts 143°
2026-05-05 19:39 50.38389 19.08072 1708 ft 135 kts 142°
2026-05-05 19:40 50.37692 19.09058 1705 ft 135 kts 142°
2026-05-05 19:40 50.36985 19.10059 1674 ft 138 kts 140°
2026-05-05 19:40 50.36296 19.11115 1655 ft 140 kts 139°
2026-05-05 19:40 50.35688 19.12341 1688 ft 142 kts 129°
2026-05-05 19:41 50.35116 19.13594 1630 ft 145 kts 130°
2026-05-05 19:41 50.34512 19.14847 1635 ft 144 kts 131°
2026-05-05 19:41 50.33903 19.16102 1628 ft 141 kts 131°
2026-05-05 19:41 50.33311 19.17329 1652 ft 141 kts 129°
2026-05-05 19:42 50.32762 19.18625 1663 ft 144 kts 125°
2026-05-05 19:42 50.32319 19.20036 1670 ft 145 kts 117°
2026-05-05 19:42 50.31923 19.21488 1691 ft 145 kts 118°
2026-05-05 19:42 50.31526 19.22938 1685 ft 143 kts 116°
2026-05-05 19:43 50.31216 19.24405 1676 ft 143 kts 108°
2026-05-05 19:43 50.30990 19.25922 1701 ft 144 kts 110°
2026-05-05 19:43 50.30652 19.27377 1745 ft 141 kts 120°
2026-05-05 19:43 50.30165 19.28706 1730 ft 140 kts 126°
2026-05-05 19:44 50.29656 19.30010 1727 ft 140 kts 126°
2026-05-05 19:44 50.29157 19.31330 1591 ft 143 kts 123°
2026-05-05 19:44 50.28698 19.32696 1530 ft 144 kts 122°
2026-05-05 19:44 50.28248 19.34067 1543 ft 141 kts 116°
2026-05-05 19:45 50.27884 19.35512 1516 ft 143 kts 114°
2026-05-05 19:45 50.27537 19.36967 1563 ft 142 kts 112°
2026-05-05 19:45 50.27214 19.38436 1569 ft 143 kts 112°
2026-05-05 19:45 50.26887 19.39895 1572 ft 141 kts 113°
2026-05-05 19:46 50.26527 19.41260 1681 ft 137 kts 116°
2026-05-05 19:46 50.26136 19.42624 1668 ft 137 kts 118°
2026-05-05 19:46 50.25694 19.43945 1709 ft 135 kts 127°
2026-05-05 19:46 50.25113 19.45068 1747 ft 134 kts 142°
2026-05-05 19:47 50.24364 19.45963 1699 ft 137 kts 144°
2026-05-05 19:47 50.23577 19.46934 1561 ft 142 kts 143°
2026-05-05 19:47 50.22875 19.47917 1698 ft 134 kts 136°
2026-05-05 19:47 50.22242 19.48968 1727 ft 132 kts 137°
2026-05-05 19:48 50.21631 19.49988 1804 ft 129 kts 135°
2026-05-05 19:48 50.21034 19.51046 1818 ft 130 kts 136°
2026-05-05 19:48 50.20395 19.52057 1853 ft 132 kts 137°
2026-05-05 19:48 50.19735 19.53051 1870 ft 134 kts 137°
2026-05-05 19:49 50.19075 19.54064 1927 ft 133 kts 137°
2026-05-05 19:49 50.18658 19.54791 1942 ft 132 kts 134°
2026-05-05 19:49 50.17863 19.56328 1824 ft 143 kts 131°
2026-05-05 19:49 50.17246 19.57555 1829 ft 140 kts 130°
2026-05-05 19:50 50.16654 19.58774 1848 ft 143 kts 127°
2026-05-05 19:50 50.16140 19.60092 1756 ft 144 kts 121°
2026-05-05 19:50 50.15657 19.61452 1681 ft 145 kts 123°
2026-05-05 19:50 50.15134 19.62832 1504 ft 150 kts 122°
2026-05-05 19:51 50.14630 19.64187 1576 ft 142 kts 121°
2026-05-05 19:51 50.14158 19.65538 1475 ft 146 kts 121°
2026-05-05 19:51 50.13654 19.66905 1448 ft 145 kts 118°
2026-05-05 19:51 50.13282 19.68351 1432 ft 144 kts 110°
2026-05-05 19:52 50.12928 19.69828 1384 ft 145 kts 112°
2026-05-05 19:52 50.12571 19.71313 1230 ft 152 kts 109°
2026-05-05 19:52 50.12220 19.72863 1180 ft 147 kts 110°
2026-05-05 19:52 50.11868 19.74353 1168 ft 145 kts 111°
2026-05-05 19:53 50.11462 19.75738 1295 ft 137 kts 118°
2026-05-05 19:53 50.11038 19.77036 1409 ft 134 kts 115°
2026-05-05 19:53 50.10670 19.78368 1511 ft 132 kts 98°
2026-05-05 19:53 50.11228 19.79199 1561 ft 137 kts 331°
2026-05-05 19:54 50.11373 19.77930 1633 ft 128 kts 244°
2026-05-05 19:54 50.10640 19.77773 1531 ft 146 kts 125°
2026-05-05 19:54 50.10949 19.79097 1418 ft 153 kts 15°
2026-05-05 19:54 50.11646 19.78276 1547 ft 134 kts 274°
2026-05-05 19:55 50.11185 19.77244 1660 ft 130 kts 181°
2026-05-05 19:55 50.10982 19.78394 1534 ft 150 kts 63°
2026-05-05 19:55 50.10733 19.79673 1587 ft 135 kts 163°
2026-05-05 19:55 50.10282 19.78750 1618 ft 140 kts 295°
2026-05-05 19:56 50.11169 19.78649 1592 ft 147 kts 45°
2026-05-05 19:56 50.11023 19.79858 1598 ft 135 kts 176°
2026-05-05 19:56 50.10731 19.78755 1439 ft 148 kts 312°
2026-05-05 19:56 50.11398 19.77775 1582 ft 132 kts 271°
2026-05-05 19:57 50.10754 19.77144 1578 ft 138 kts 150°
2026-05-05 19:57 50.10586 19.78050 1441 ft 151 kts 64°
2026-05-05 19:57 50.11317 19.77497 1308 ft 145 kts 230°
2026-05-05 19:57 50.10704 19.77980 1339 ft 142 kts 70°
2026-05-05 19:58 50.11373 19.77835 1443 ft 131 kts 270°
2026-05-05 19:58 50.10748 19.77317 1372 ft 141 kts 129°
2026-05-05 19:58 50.11227 19.78086 1324 ft 140 kts 322°
2026-05-05 19:58 50.10920 19.77269 1360 ft 135 kts 149°
2026-05-05 19:59 50.10654 19.78571 1416 ft 134 kts 103°
2026-05-05 19:59 50.10247 19.79946 1282 ft 146 kts 120°
2026-05-05 19:59 50.09690 19.81311 1097 ft 151 kts 123°
2026-05-05 19:59 50.09113 19.82662 1082 ft 146 kts 124°
2026-05-05 20:00 50.08416 19.83270 1148 ft 115 kts 222°
2026-05-05 20:00 50.08265 19.82162 972 ft 101 kts 262°
2026-05-05 20:00 50.08147 19.81140 862 ft 89 kts 257°
2026-05-05 20:00 50.08020 19.80257 801 ft 78 kts 257°
2026-05-05 20:01 50.07921 19.79533 785 ft 44 kts 259°
2026-05-05 20:01 50.07869 19.79154 785 ft 36 kts 256°
2026-05-05 20:01 50.07755 19.79089 785 ft 13 kts 167°
2026-05-05 20:01 50.07659 19.79121 785 ft 15 kts 166°
2026-05-05 20:02 50.07621 19.79209 785 ft 12 kts 71°
2026-05-05 20:02 50.07641 19.79355 785 ft 16 kts 80°
2026-05-05 20:02 50.07666 19.79532 785 ft 18 kts 78°
2026-05-05 20:02 50.07690 19.79710 785 ft 10 kts 79°
2026-05-05 20:03 50.07708 19.79835 785 ft 13 kts 87°
2026-05-05 20:03 50.07641 19.79889 785 ft 13 kts 167°
2026-05-05 20:03 50.07617 19.80009 785 ft 15 kts 76°
2026-05-05 20:03 50.07640 19.80186 785 ft 18 kts 77°
2026-05-05 20:04 50.07661 19.80299 785 ft 5 kts 18°
2026-05-05 20:04 50.07705 19.80281 785 ft 8 kts 343°
2026-05-05 20:04 50.07719 19.80276 785 ft 0 kts 345°